Snowfall_Accumulation
0.3 0.2 0.2 0.2 0.4 0.4 0.3 0.3 0.2 0.2 0.2 0.3 0.4 0.5 0.7 0.9 0.9 1.2 1.4 1.6 2.2 2.3 2.3 2.7 3.4 4.2 3.5 3.8 3.6 3.5 3.8 4.0 3.2 3.1 4.0 4.4 5.1 5.3 6.0 6.3 6.4 7.0
0.3 0.4 0.4 0.5 0.5 0.5 0.4 0.4 0.5 0.4 0.7 0.6 0.5 0.5 0.7 0.6 1.2 1.3 1.5 1.8 2.0 2.3 2.5 2.9 2.5 3.0 3.0 3.5 3.4 3.9 3.5 3.3 3.5 2.6 3.2 3.4 3.7 3.8 4.4 4.5 5.0 5.1
0.6 0.6 0.7 0.8 0.9 1.0 1.0 1.0 1.1 1.1 1.2 1.1 1.1 1.0 1.1 0.9 1.0 1.0 1.2 1.6 2.1 2.7 2.9 3.7 4.2 4.5 4.8 4.1 3.1 3.1 3.5 3.7 4.1 3.5 3.7 3.7 3.4 3.7 3.8 3.6 4.1 4.5
0.7 0.8 1.0 1.1 1.2 1.4 1.3 1.4 1.4 1.5 1.3 1.4 1.3 1.2 1.2 1.4 1.4 1.7 1.8 1.9 2.0 2.1 2.4 2.6 3.0 3.3 3.9 4.1 5.3 5.3 5.2 4.8 4.5 4.3 4.4 4.6 4.6 4.3 4.2 3.9 4.3 4.6
0.9 1.0 1.1 1.1 1.1 1.2 1.3 1.4 1.6 1.5 1.8 1.8 1.9 1.7 2.0 2.0 2.1 2.3 2.4 2.4 2.3 2.4 3.2 2.8 2.7 2.9 3.0 3.2 3.5 4.4 4.5 5.0 5.0 4.9 4.9 5.1 4.8 4.8 4.9 5.0 5.5 5.6
1.1 1.1 1.2 1.2 1.2 1.5 1.7 1.7 1.7 1.9 2.3 2.0 1.9 1.8 2.1 2.1 2.3 2.4 2.5 2.8 2.7 2.7 2.9 4.6 3.7 3.4 3.9 3.5 3.5 3.6 3.9 4.0 4.1 4.5 5.3 5.9 6.0 5.6 5.7 5.7 6.0 6.1
1.8 1.9 2.0 2.0 2.2 2.4 2.6 2.6 2.8 3.0 2.7 2.6 2.9 3.0 2.2 2.3 2.3 2.5 2.8 2.9 3.2 3.4 3.6 4.4 4.1 4.5 4.0 4.3 4.7 4.7 4.7 4.8 5.0 5.2 5.6 5.6 5.6 5.9 5.8 6.9 7.4 7.5
2.8 2.7 2.7 2.7 2.8 2.8 2.9 3.0 3.6 3.6 3.4 3.1 3.6 2.7 3.0 2.8 2.9 3.0 3.1 3.2 3.4 3.5 3.5 3.8 4.7 4.9 4.7 5.1 5.4 5.2 5.2 5.1 5.8 6.5 6.3 6.4 6.1 6.6 6.0 6.2 6.9 7.7
3.0 3.1 3.1 3.3 3.5 3.6 4.1 4.2 3.9 3.9 3.7 3.6 3.4 3.2 3.1 3.3 3.3 3.3 3.4 3.5 3.5 3.4 3.4 3.8 3.8 4.2 3.9 4.8 5.4 5.5 5.6 5.4 5.4 5.8 6.3 6.6 6.5 6.4 6.1 6.0 7.0 7.5
3.3 3.3 3.4 3.5 4.1 3.7 3.7 3.6 4.3 3.7 3.7 3.8 3.9 3.8 4.0 3.7 3.6 3.5 3.7 3.6 3.9 4.0 4.3 3.9 3.9 3.7 3.9 4.3 4.6 4.6 5.2 5.6 5.2 5.2 5.6 6.1 6.5 6.4 6.4 6.9 7.6 8.2
3.8 3.8 3.9 4.0 4.0 3.8 3.9 3.7 4.2 3.7 3.6 4.4 4.1 4.4 5.1 4.2 4.0 3.7 3.9 4.1 4.2 4.0 3.8 3.7 3.8 3.7 3.9 4.0 3.9 3.9 4.3 4.5 4.9 5.3 5.4 5.7 5.7 6.1 6.6 7.2 7.5 7.8
3.8 3.8 3.8 3.9 3.9 4.3 3.9 3.8 3.9 4.1 4.1 4.5 5.1 4.2 4.7 4.4 4.6 4.3 4.3 4.1 4.0 3.9 3.9 4.2 3.9 4.0 4.2 4.7 4.1 3.7 3.7 3.9 4.1 4.3 4.4 4.7 5.0 5.3 5.6 6.2 6.9 7.0
3.7 3.8 3.7 3.8 3.8 3.9 4.0 4.2 4.1 3.9 4.1 4.3 4.2 4.5 5.0 5.1 5.0 4.6 4.4 4.3 4.1 4.0 4.1 4.1 4.0 3.9 4.1 4.2 4.1 4.0 4.2 4.4 4.5 4.4 4.3 4.2 4.4 4.4 4.2 4.5 5.0 5.4
3.8 3.6 3.5 3.6 3.6 4.4 3.6 3.7 3.8 4.0 4.2 4.2 4.5 4.9 5.5 5.4 5.4 4.7 4.2 4.1 4.2 4.2 3.9 3.9 4.0 4.0 4.0 4.4 4.5 4.4 4.7 5.1 5.0 5.7 5.8 5.3 4.6 4.1 4.1 4.4 4.3 4.3
3.5 3.4 3.5 3.9 3.7 4.0 4.1 4.0 4.0 4.3 4.0 4.3 4.9 5.4 5.0 5.0 5.1 4.8 4.7 4.8 4.2 4.1 4.4 3.9 4.3 4.2 4.3 5.4 5.5 5.4 6.1 7.8 7.8 8.0 7.5 7.1 6.5 6.0 5.3 4.8 4.5 4.4
3.5 3.8 4.1 4.5 4.5 4.7 4.3 4.0 4.0 4.2 4.7 4.5 5.1 5.1 5.2 4.5 4.7 4.9 5.3 6.7 5.1 4.7 4.5 5.0 4.7 4.4 4.5 6.4 6.2 9.7 12.3 13.5 13.8 13.4 12.7 12.3 11.6 10.2 8.4 6.9 6.0 5.3
3.9 4.3 4.2 4.3 4.3 4.0 4.0 4.2 4.3 4.4 4.6 5.0 5.1 5.1 5.5 6.0 5.6 6.4 6.0 5.9 5.6 5.7 6.1 5.8 5.6 4.9 4.8 7.6 11.4 14.7 17.4 19.5 19.2 17.2 14.6 13.3 12.1 11.1 9.9 7.5 6.1 5.2
4.0 4.0 4.1 4.2 4.1 4.2 4.3 4.6 4.5 5.0 5.2 5.2 6.0 5.6 6.1 6.0 7.1 7.4 6.1 5.8 6.0 6.2 6.5 6.2 6.2 5.1 5.8 11.2 13.8 18.3 23.8 24.7 22.6 20.4 17.5 15.2 13.2 12.2 10.6 9.3 8.1 7.0
3.9 4.2 4.4 4.4 4.4 5.2 4.7 5.0 5.3 5.5 5.6 5.8 6.1 6.1 6.5 7.5 8.0 7.0 6.9 6.9 7.1 8.0 7.4 6.8 6.8 5.6 7.2 11.9 15.2 21.2 26.3 29.6 25.3 21.5 18.9 15.6 12.9 11.4 10.4 9.3 8.5 8.8
3.9 4.3 4.6 4.6 4.7 4.6 4.8 5.2 5.6 6.1 6.0 6.4 6.6 6.7 7.6 8.1 7.8 8.2 8.1 8.7 9.1 9.6 9.3 8.9 8.3 7.1 8.0 13.5 19.4 23.5 28.7 33.8 27.9 23.7 19.5 16.2 13.4 11.4 9.9 8.9 8.2 8.3
4.2 4.8 5.3 4.8 4.6 4.6 5.0 5.4 5.8 6.0 6.1 6.4 7.1 7.8 8.8 9.6 9.5 9.7 9.8 10.2 10.4 11.5 11.4 11.3 9.5 8.0 11.1 17.1 21.0 25.0 29.4 36.0 30.1 24.2 19.1 15.1 12.1 10.4 9.9 9.1 8.2 7.8
4.4 4.8 4.8 4.9 4.9 5.2 6.0 6.2 6.0 6.1 7.1 6.7 7.6 8.1 8.5 8.9 8.4 8.6 9.1 9.2 8.9 9.7 10.9 10.8 8.5 7.9 12.2 17.1 19.7 25.0 32.0 31.7 29.8 23.6 18.9 14.8 11.8 9.8 8.9 7.9 7.3 7.7
4.6 5.0 5.3 5.2 5.4 5.9 6.1 6.2 6.3 6.2 6.1 6.3 7.8 7.3 7.2 6.9 7.1 6.8 7.2 8.1 8.4 8.6 9.1 8.5 7.8 7.7 9.7 15.3 17.7 23.1 34.0 36.6 32.0 24.3 18.5 14.9 11.4 9.5 8.7 7.9 7.2 7.2
4.3 4.9 5.7 5.7 6.0 6.3 5.9 5.5 5.3 5.5 6.0 5.9 7.4 7.4 7.3 6.9 6.6 7.1 7.1 7.4 8.3 8.4 8.3 8.7 7.9 6.9 8.4 12.6 16.2 21.3 30.7 34.0 32.0 27.6 20.8 16.0 13.2 10.9 9.8 9.1 7.4 7.4
4.7 4.8 5.5 6.0 6.4 5.9 5.6 5.8 5.7 5.8 5.8 6.2 6.8 6.9 7.0 6.3 6.6 7.3 7.1 7.1 7.2 7.3 7.2 8.3 8.2 7.0 7.0 10.9 14.3 21.8 27.4 30.8 30.4 26.4 23.0 17.4 14.5 12.9 10.2 8.6 7.3 6.3
4.6 5.1 5.4 6.1 6.5 5.9 5.4 5.7 5.7 6.1 5.8 6.5 6.4 6.1 6.2 5.8 6.1 6.2 6.4 6.4 6.5 7.6 8.2 8.1 8.2 7.5 7.4 8.1 15.8 23.1 24.5 26.3 27.7 26.6 24.5 19.9 16.8 14.5 14.0 12.0 9.3 8.1